This is the latest recevied weather packets stored in our database for station/object HB9HFD-13. If no packets are shown the sender has not sent any weather packets the latest 10 day(s).
| Time | Temp. | Humidity | Pressure | Rain* | Wind** | Luminosity | Snow |
|---|---|---|---|---|---|---|---|
| 1788087535 | 26.67° C | 49% | 1015.3 hPa | 0 mm | - | - | - |
| 1788087234 | 26.67° C | 51% | 1015.3 hPa | 0 mm | - | - | - |
| 1788086934 | 26.67° C | 49% | 1015.4 hPa | 0 mm | - | - | - |
| 1788086634 | 26.11° C | 53% | 1015.4 hPa | 0 mm | - | - | - |
| 1788086334 | 26.11° C | 49% | 1015.6 hPa | 0 mm | - | - | - |
| 1788086033 | 26.67° C | 54% | 1015.6 hPa | 0 mm | - | - | - |
| 1788085733 | 26.11° C | 54% | 1015.7 hPa | 0 mm | - | - | - |
| 1788085433 | 25.56° C | 54% | 1015.7 hPa | 0 mm | - | - | - |
| 1788085133 | 25.56° C | 55% | 1015.7 hPa | 0 mm | - | - | - |
| 1788084832 | 25° C | 54% | 1015.7 hPa | 0 mm | - | - | - |
| 1788084532 | 24.44° C | 54% | 1015.8 hPa | 0 mm | - | - | - |
| 1788084232 | 23.89° C | 55% | 1015.8 hPa | 0 mm | - | - | - |
| 1788083931 | 23.89° C | 54% | 1015.9 hPa | 0 mm | - | - | - |
| 1788083631 | 23.89° C | 54% | 1016 hPa | 0 mm | - | - | - |
| 1788083331 | 23.89° C | 55% | 1016 hPa | 0 mm | - | - | - |
| 1788083031 | 23.89° C | 55% | 1016 hPa | 0 mm | - | - | - |
| 1788082730 | 23.89° C | 52% | 1016 hPa | 0 mm | - | - | - |
| 1788082430 | 23.89° C | 56% | 1016.1 hPa | 0 mm | - | - | - |
| 1788082130 | 23.33° C | 55% | 1016.1 hPa | 0 mm | - | - | - |
| 1788081830 | 23.89° C | 53% | 1016.2 hPa | 0 mm | - | - | - |
| 1788081530 | 23.89° C | 56% | 1016.2 hPa | 0 mm | - | - | - |
| 1788081229 | 23.89° C | 57% | 1016.2 hPa | 0 mm | - | - | - |
| 1788080929 | 23.33° C | 56% | 1016.3 hPa | 0 mm | - | - | - |
| 1788080629 | 23.33° C | 56% | 1016.3 hPa | 0 mm | - | - | - |
| 1788080328 | 22.78° C | 59% | 1016.3 hPa | 0 mm | - | - | - |
* Rain latest hour (hover to see other rain measurements)
** Current wind speed in m/s (hover to see current wind gust speed)